Vorticity
5 4 7 5 5 11 9 7 7 7 6 7 8 10 10 9 8 7 6 5 5 5 5 5 5 4 5 5 6 7 8 8 8 7 6 7 7 8 9 9 9 9 8
5 6 5 5 11 9 7 7 7 6 8 9 10 9 8 8 6 5 5 5 5 5 5 4 5 5 7 8 9 9 8 8 7 7 6 6 6 7 9 10 11 11 11
6 7 5 11 9 7 7 6 7 8 9 10 9 8 7 6 5 5 4 5 5 5 5 5 6 8 9 9 8 8 8 8 8 8 8 7 7 9 9 9 9 11 13
7 6 11 8 7 7 7 7 8 9 10 9 7 7 6 5 5 5 6 5 5 4 5 7 9 9 8 8 8 9 8 8 8 8 9 9 9 8 10 12 11 10 11
8 11 8 7 7 7 7 8 9 9 9 8 7 6 5 5 5 5 5 5 5 6 9 10 8 8 10 8 8 8 9 9 10 10 10 11 12 12 11 12 13 12 10
10 8 7 7 6 7 8 9 10 9 8 7 5 5 5 6 5 5 5 5 8 9 8 8 9 8 8 9 9 9 10 10 10 11 11 12 13 12 12 15 16 17 18
8 7 6 6 7 8 9 9 10 8 6 5 5 6 6 5 5 5 7 8 7 8 8 8 9 9 9 8 10 9 10 12 13 15 13 13 13 18 15 16 15 14 14
6 6 6 7 8 9 10 10 8 6 6 6 7 6 6 5 6 8 7 7 9 9 9 9 8 8 9 10 8 11 14 16 23 22 22 22 22 24 22 18 19 18 14
5 5 6 7 8 11 9 7 6 7 7 7 6 5 6 9 7 7 10 9 8 9 8 7 8 10 11 13 12 11 12 16 15 15 16 17 17 18 17 17 15 7 9
5 6 7 9 12 7 7 7 7 7 7 6 6 8 6 7 10 9 8 7 6 6 7 7 9 10 10 13 17 19 21 22 19 16 17 16 15 15 15 16 18 15 15
6 6 9 10 7 8 8 8 7 6 6 7 6 8 10 8 8 7 8 8 8 8 9 11 10 12 16 17 19 19 19 18 16 18 17 16 15 14 12 12 13 12 12
6 10 8 8 8 9 8 6 6 7 6 8 9 9 8 8 7 7 7 8 8 10 11 11 12 17 19 19 19 16 16 18 20 17 15 15 14 14 14 14 12 10 10
11 7 8 9 9 7 6 6 6 8 9 7 6 6 7 6 5 7 7 9 11 13 13 14 22 24 21 17 19 21 18 15 13 12 12 11 8 7 8 10 10 12 11
8 9 9 7 7 7 6 8 9 7 6 7 6 5 4 5 7 10 14 15 14 13 18 29 26 18 18 18 14 11 10 10 10 9 7 7 8 10 12 16 16 16 11
10 8 7 7 6 7 9 7 6 6 7 6 5 5 10 13 15 15 16 15 15 24 25 18 14 10 7 6 7 8 10 14 17 18 18 18 19 19 19 19 10 11 16
7 7 6 6 9 8 6 5 7 7 7 7 9 10 11 12 13 15 14 13 21 12 7 4 7 9 9 12 17 19 18 17 17 15 14 13 13 11 12 9 8 7 22
6 7 8 8 5 5 6 7 6 3 3 8 10 12 12 13 15 18 12 17 7 6 11 9 8 12 18 16 12 16 21 21 18 17 17 19 16 14 13 13 11 19 19
7 8 6 6 6 6 5 5 6 9 12 13 13 14 13 15 18 15 15 10 6 12 7 8 11 17 15 14 19 15 18 18 17 18 17 19 21 23 26 26 24 18 14
6 6 6 6 6 5 6 6 10 12 11 11 13 16 12 14 18 12 17 8 6 10 8 10 16 15 13 16 15 14 14 14 14 13 13 14 12 11 14 15 14 9 11
7 6 6 6 5 6 4 6 13 10 9 11 14 14 13 16 15 14 19 8 4 10 10 12 17 14 14 13 17 13 13 12 11 12 14 15 13 14 14 11 9 8 9
8 8 6 6 5 5 4 10 11 9 9 13 14 14 12 15 12 14 14 7 5 11 10 16 15 13 13 13 17 14 11 13 12 10 11 14 15 14 11 10 9 12 8
7 6 5 3 2 3 4 11 9 8 12 13 14 13 12 18 10 13 13 6 7 11 12 16 14 13 13 13 15 18 15 13 12 12 14 14 13 13 12 11 10 11 10
6 6 5 4 2 2 5 10 7 8 14 13 14 12 15 18 11 13 14 5 9 11 15 16 12 13 14 13 12 13 15 13 13 13 12 11 12 15 14 14 14 13 13
6 6 7 5 4 2 6 9 7 12 13 15 14 12 20 15 11 14 11 6 10 13 16 15 12 13 15 14 12 11 12 11 11 13 14 15 15 15 15 15 15 15 14
5 6 7 4 4 1 8 7 6 14 14 17 12 17 19 11 14 13 8 8 11 15 16 14 12 14 15 13 12 12 11 10 10 11 11 11 11 12 13 14 14 13 13
5 3 -2 17 9 1 9 4 11 13 17 14 16 18 13 13 14 10 8 9 11 15 14 14 12 14 15 13 12 12 12 12 11 10 12 13 14 14 13 12 13 12 10
Height
3092 3095 3098 3101 3102 3104 3104 3105 3105 3104 3103 3102 3100 3098 3097 3096 3094 3092 3091 3088 3086 3084 3080 3077 3073 3069 3066 3061 3055 3050 3045 3039 3027 3023 3020 3021 3022 3019 3017 3012 3007 3003 2999
3089 3092 3095 3097 3098 3099 3100 3101 3100 3099 3098 3097 3095 3093 3092 3091 3089 3087 3085 3082 3080 3078 3074 3070 3065 3061 3057 3052 3046 3042 3036 3031 3022 3013 3009 3006 3002 2999 2997 2995 2994 2990 2984
3086 3090 3091 3093 3094 3096 3096 3096 3096 3095 3094 3091 3090 3089 3088 3086 3084 3082 3079 3077 3074 3070 3066 3061 3056 3051 3047 3042 3036 3031 3025 3019 3013 3005 2999 2994 2988 2984 2979 2976 2973 2971 2969
3084 3086 3088 3090 3091 3092 3092 3092 3091 3090 3088 3087 3086 3084 3083 3081 3079 3076 3073 3070 3066 3062 3057 3051 3046 3041 3036 3030 3024 3019 3013 3007 3001 2995 2988 2981 2975 2970 2964 2958 2954 2951 2948
3080 3083 3085 3087 3088 3088 3088 3087 3087 3085 3084 3083 3081 3080 3078 3075 3073 3069 3065 3062 3058 3053 3048 3042 3037 3031 3025 3018 3011 3005 2999 2992 2985 2979 2972 2966 2960 2954 2948 2942 2935 2932 2928
3077 3080 3082 3083 3083 3084 3083 3083 3082 3081 3080 3078 3077 3075 3072 3068 3065 3060 3056 3053 3049 3043 3038 3034 3028 3021 3015 3008 3001 2993 2985 2976 2969 2962 2955 2948 2943 2937 2931 2924 2918 2913 2908
3075 3077 3078 3079 3080 3080 3079 3079 3078 3076 3075 3074 3072 3070 3066 3062 3058 3053 3048 3043 3038 3033 3026 3020 3014 3008 3001 2994 2987 2979 2972 2965 2957 2948 2940 2936 2928 2923 2916 2910 2904 2899 2895
3072 3074 3075 3076 3076 3075 3075 3074 3073 3072 3071 3069 3066 3063 3060 3055 3050 3045 3041 3036 3031 3024 3016 3009 3001 2993 2986 2978 2970 2963 2957 2950 2945 2936 2928 2923 2918 2913 2906 2899 2892 2887 2884
3069 3071 3071 3072 3072 3071 3070 3069 3069 3067 3066 3063 3060 3056 3052 3049 3043 3038 3032 3027 3020 3013 3006 2997 2989 2981 2973 2964 2955 2947 2940 2933 2926 2919 2914 2909 2905 2900 2895 2887 2883 2878 2873
3066 3067 3068 3068 3067 3066 3065 3065 3064 3063 3060 3057 3053 3049 3044 3040 3035 3029 3022 3014 3007 3000 2993 2984 2976 2967 2957 2948 2938 2929 2922 2917 2910 2906 2902 2897 2893 2889 2885 2879 2874 2869 2866
3063 3063 3063 3063 3062 3062 3062 3061 3059 3057 3053 3050 3048 3043 3038 3032 3025 3017 3010 3002 2994 2986 2978 2970 2961 2952 2943 2934 2926 2918 2910 2903 2898 2893 2889 2886 2882 2878 2875 2871 2867 2862 2858
3059 3059 3059 3059 3059 3058 3057 3055 3053 3050 3047 3044 3040 3036 3030 3023 3015 3007 3000 2991 2983 2974 2966 2957 2949 2940 2931 2923 2916 2909 2902 2895 2890 2885 2881 2877 2873 2870 2866 2863 2860 2856 2852
3055 3055 3055 3055 3055 3053 3051 3049 3046 3043 3040 3036 3030 3025 3020 3014 3006 2998 2989 2981 2974 2964 2956 2946 2938 2929 2921 2914 2908 2901 2895 2889 2883 2878 2873 2869 2866 2862 2858 2855 2851 2847 2842
3052 3052 3051 3051 3050 3048 3046 3044 3041 3037 3032 3027 3021 3015 3009 3002 2994 2987 2979 2971 2962 2954 2944 2935 2927 2920 2913 2907 2901 2895 2888 2882 2876 2871 2865 2861 2857 2853 2849 2845 2841 2838 2833
3047 3047 3047 3046 3045 3043 3041 3038 3034 3029 3024 3018 3012 3005 2997 2992 2986 2977 2967 2958 2949 2940 2932 2925 2919 2912 2906 2899 2893 2886 2880 2873 2867 2862 2857 2853 2849 2844 2840 2837 2834 2831 2827
3044 3043 3042 3041 3040 3038 3035 3032 3026 3022 3017 3010 3002 2995 2988 2981 2973 2965 2956 2949 2942 2934 2927 2920 2914 2906 2898 2891 2883 2876 2871 2864 2859 2853 2849 2844 2840 2837 2833 2831 2828 2825 2821
3040 3040 3039 3037 3035 3032 3028 3025 3023 3019 3011 3004 2997 2989 2981 2972 2965 2958 2950 2944 2937 2930 2923 2915 2907 2899 2891 2883 2876 2869 2863 2857 2851 2846 2841 2837 2833 2830 2827 2824 2822 2819 2817
3037 3035 3034 3031 3029 3025 3022 3018 3013 3008 3003 2999 2992 2982 2974 2966 2958 2951 2944 2937 2932 2924 2916 2907 2899 2891 2884 2876 2870 2863 2858 2851 2846 2841 2836 2832 2828 2824 2820 2818 2816 2814 2813
3032 3031 3029 3026 3023 3020 3016 3012 3006 2999 2992 2985 2979 2972 2963 2955 2949 2942 2935 2929 2922 2915 2908 2900 2892 2884 2877 2870 2864 2859 2853 2848 2842 2837 2833 2829 2825 2821 2818 2815 2813 2812 2810
3027 3025 3023 3020 3018 3014 3009 3003 2997 2990 2983 2976 2968 2961 2953 2946 2941 2935 2928 2922 2915 2908 2900 2892 2885 2878 2871 2865 2859 2854 2849 2844 2840 2835 2831 2826 2822 2819 2815 2813 2811 2809 2807
3021 3019 3017 3014 3011 3006 3001 2994 2987 2981 2974 2967 2959 2952 2944 2937 2931 2926 2920 2915 2908 2901 2893 2885 2879 2872 2866 2860 2854 2849 2845 2841 2836 2832 2828 2824 2820 2816 2814 2811 2808 2806 2803
3016 3014 3011 3007 3003 2998 2993 2986 2979 2971 2964 2957 2951 2944 2937 2930 2924 2919 2913 2908 2901 2894 2886 2879 2873 2868 2861 2855 2850 2845 2840 2836 2832 2828 2825 2821 2817 2814 2811 2808 2805 2802 2799
3010 3007 3004 3000 2995 2989 2983 2977 2971 2964 2957 2949 2942 2935 2929 2923 2917 2912 2906 2900 2894 2887 2880 2874 2868 2863 2857 2852 2846 2841 2836 2833 2829 2825 2821 2818 2814 2810 2807 2804 2801 2799 2796
3003 3000 2996 2992 2986 2980 2974 2968 2962 2955 2947 2940 2933 2927 2921 2915 2910 2904 2899 2893 2887 2881 2875 2869 2863 2857 2852 2848 2843 2838 2834 2829 2826 2822 2818 2815 2811 2807 2804 2801 2798 2795 2792
2995 2991 2987 2982 2977 2972 2966 2960 2953 2945 2938 2931 2925 2919 2913 2908 2903 2897 2892 2887 2881 2875 2869 2863 2858 2853 2848 2843 2839 2835 2831 2827 2823 2820 2816 2812 2808 2805 2801 2798 2795 2792 2789
2987 2983 2978 2973 2969 2964 2957 2950 2943 2936 2929 2923 2917 2911 2906 2901 2895 2890 2885 2880 2874 2869 2863 2858 2853 2848 2843 2839 2835 2831 2827 2823 2820 2816 2813 2809 2806 2802 2799 2796 2793 2790 2788